{"data":{"norad_id":62634,"intl_designator":"2025-009AB","name":"FLOCK 4G-28","alt_names":[],"object_type":"PAYLOAD","status":"ACTIVE","operator":null,"country":"US","launch_date":"2025-01-14","launch_site_code":"AFWTR","launch_vehicle":null,"mission":null,"orbit_class":"UNKNOWN","rcs_meters":null,"size_class":null,"mass_kg":null,"dimensions":null,"purposes":["earth_obs"],"wikipedia_slug":null,"has_3d_model":false,"image_url":null,"decayed_at":null,"tle_current":{"epoch":"2026-09-19T13:04:51.646080Z","epoch_age_seconds":100853,"freshness":"FRESH","line1":"1 62634U 25009AB  26262.54504220  .00006450  00000+0  18472-3 0  9996","line2":"2 62634  97.3979 347.5222 0001345  24.9940 335.1369 15.36276084 93568","mean_motion":15.36276084,"eccentricity":0.0001345,"inclination_deg":97.3979,"raan_deg":347.5222,"arg_perigee_deg":24.994,"mean_anomaly_deg":335.1369,"bstar":0.00018472,"rev_number":9356,"period_min":93.733152198183,"perigee_km":456.21345475366,"apogee_km":458.05214232947,"semimajor_km":6835.2697985416,"source":"CELESTRAK","updated_at":"2026-09-20T09:00:34.718777Z"}}}